User: anonymous   Login
Location: Unspecified
(0.0000°N, 0.0000°E)
Time: 00:05:31
(UTC+00:00)
Language:

Tiangong - Orbit

View from above orbital plane
View from above orbital plane
View from above satellite
View from above satellite

Ground track
Ground track

The orbit data is extracted from the following two-line orbital elements,

1 48274U 21035A   22276.75049307  .00013950  00000-0  16436-3 0  9991
2 48274  41.4735 277.4252 0002239 351.8789 177.8344 15.61109304 81741
Epoch (UTC): 03 October 2022 18:00:42
Eccentricity: 0.0002239
inclination: 41.4735°
perigee height: 383 km
apogee height: 386 km
right ascension of ascending node: 277.4252°
argument of perigee: 351.8789°
revolutions per day: 15.61109304
mean anomaly at epoch: 177.8344°
orbit number at epoch: 8174

The dashed part of the orbit path shows where the satellite is in the earth's shadow,  

DLR